Theta_e
340 343 341 341 339 339 337 335 337 337 336 334 334 334 334 334 334 336 336 336 338 340 342 340 339 343 342 342 342 343 343 341 338 334 334 336 337 337 333 335 338 340 341
338 340 342 341 340 340 339 336 335 336 336 337 338 337 335 335 336 336 338 339 341 342 339 334 338 338 338 337 337 337 336 335 334 333 336 340 340 341 337 337 336 333 341
339 340 341 340 340 340 340 339 340 339 339 336 337 339 339 339 339 340 341 340 341 341 333 329 333 332 334 333 332 332 331 329 329 333 334 339 343 342 332 336 336 338 336
340 342 341 341 341 340 339 340 341 340 341 341 338 337 338 339 340 342 341 341 343 335 337 337 340 333 332 330 336 336 334 340 337 334 331 329 334 336 335 333 332 333 337
341 342 340 339 340 341 341 341 341 342 339 335 336 337 338 336 335 341 342 340 333 338 340 338 335 335 331 340 341 342 344 344 344 344 342 340 331 330 334 336 337 335 334
339 341 342 341 339 339 339 341 341 341 336 337 340 338 337 337 340 337 340 335 341 341 332 330 329 330 339 341 342 343 345 345 344 340 339 340 338 339 339 339 338 338 337
339 339 342 342 340 340 341 342 340 337 337 336 335 338 335 336 337 339 333 329 331 329 330 331 332 331 333 341 342 343 344 345 344 341 340 342 338 339 339 339 341 341 339
342 341 342 342 342 340 340 342 337 335 336 335 336 337 334 338 340 337 340 337 330 331 334 335 334 334 332 336 343 345 345 345 345 344 342 342 339 340 341 340 341 341 339
341 340 341 342 343 340 337 336 335 335 335 334 337 336 336 341 340 339 335 333 334 335 336 337 337 335 334 339 344 343 344 344 343 341 341 342 340 339 340 341 341 340 340
340 340 340 340 341 341 339 336 334 333 333 337 338 335 339 337 339 340 338 336 335 337 338 338 336 336 338 344 346 341 342 344 341 335 341 343 342 340 341 342 342 339 340
340 339 339 339 339 339 339 339 338 335 336 338 337 339 338 335 339 337 338 337 336 338 338 335 332 332 333 338 341 344 342 341 334 335 338 340 343 339 340 342 341 340 339
336 338 337 338 339 338 338 337 337 336 338 338 338 332 331 334 335 334 334 335 337 336 333 335 337 337 336 337 338 342 342 341 339 335 339 343 342 339 341 341 341 340 339
335 338 338 338 337 338 338 337 339 340 338 338 331 340 335 334 331 329 331 335 335 334 335 339 341 342 344 346 347 343 344 344 343 341 339 341 339 339 341 340 341 339 338
338 338 337 337 337 337 338 338 340 337 338 335 341 343 339 337 329 328 329 333 334 335 340 345 345 342 344 344 343 341 343 343 342 340 340 342 341 344 340 341 337 332 334
338 338 336 336 337 338 337 339 337 340 339 342 343 342 341 340 341 341 335 332 337 344 342 343 346 346 343 341 341 343 341 340 338 341 341 343 344 342 341 337 334 330 334
336 339 338 335 336 338 337 337 337 341 342 342 341 342 343 341 340 340 341 341 341 341 343 344 345 346 343 342 343 341 343 340 342 343 337 343 344 340 342 335 337 335 335
334 335 334 335 336 336 337 338 336 339 339 341 342 341 341 340 340 337 340 341 343 345 345 347 344 344 339 344 340 339 342 339 337 343 341 343 345 340 341 337 338 336 335
333 331 333 334 334 337 341 342 341 339 343 340 339 340 341 342 337 339 339 339 342 345 347 346 343 344 347 343 343 339 339 338 339 341 342 341 343 341 339 339 337 338 339
340 337 336 334 337 340 340 341 342 342 341 341 340 339 339 340 339 338 343 340 342 345 345 347 346 344 346 346 343 343 344 343 345 345 344 343 342 342 337 340 340 339 338
340 340 336 337 338 340 340 341 342 342 342 343 343 342 340 339 337 337 344 343 344 346 347 343 349 344 348 347 346 343 339 343 344 343 343 346 341 344 343 341 343 342 339
341 341 339 335 337 340 338 341 343 341 343 343 343 339 339 339 339 338 342 342 341 343 345 345 346 344 346 348 344 344 340 342 344 344 342 345 343 344 343 344 343 343 343
342 342 341 340 340 339 338 339 341 342 343 344 343 343 343 341 340 344 341 346 344 340 341 343 343 340 346 348 346 344 343 345 342 343 345 346 345 343 342 346 344 344 344
342 342 342 340 342 341 337 337 340 339 343 344 342 345 344 345 342 342 341 342 343 342 339 342 343 337 343 347 347 346 345 345 344 344 344 344 345 343 345 344 343 344 344
341 342 343 341 343 342 340 340 339 340 342 342 342 344 345 345 344 343 342 339 340 340 337 338 346 340 342 346 348 344 346 347 347 346 345 345 345 345 346 346 344 344 344
342 341 342 341 342 342 342 340 340 340 341 341 344 345 344 344 343 345 345 337 335 341 339 342 344 344 341 345 347 346 346 347 347 347 347 346 346 346 346 346 344 344 344
343 342 342 342 341 342 342 341 341 339 341 341 344 344 342 344 344 345 346 346 345 341 337 339 344 347 343 346 348 344 345 347 347 347 346 346 346 345 345 345 345 347 346
Wind_Speed
19 18 19 19 18 17 18 18 17 17 16 15 15 14 13 13 12 11 11 11 9 9 11 11 11 12 11 10 10 9 7 7 7 7 7 8 8 6 5 4 4 5 6
20 20 19 19 17 16 17 18 18 16 15 14 14 13 13 13 12 12 10 10 10 11 10 11 12 13 13 11 11 12 10 9 7 7 7 6 6 6 3 2 3 4 6
18 16 16 17 17 16 16 17 16 16 15 15 14 14 13 13 12 11 12 12 12 10 9 11 13 13 13 12 11 11 11 10 10 7 6 5 4 4 3 1 3 5 6
17 17 17 16 16 15 16 15 15 13 13 14 14 14 12 13 13 13 13 13 12 11 13 13 13 12 12 11 11 11 12 11 11 11 7 3 2 3 5 2 3 3 5
15 16 16 16 16 15 15 15 14 13 12 12 12 14 14 13 13 14 13 12 13 13 13 13 13 11 11 11 10 8 6 5 4 4 5 5 2 1 4 5 3 6 7
15 15 14 15 15 15 15 15 14 13 13 12 14 15 14 13 11 14 14 13 13 12 12 13 12 12 13 10 7 4 4 2 1 3 3 1 5 2 6 4 4 4 6
16 15 15 13 14 14 15 15 15 15 15 15 16 15 14 14 13 13 13 13 13 14 13 12 11 10 9 9 6 3 1 3 1 1 3 2 6 6 6 3 1 3 4
11 14 14 15 13 13 14 15 16 17 17 16 14 14 16 14 12 14 13 13 13 12 11 10 10 9 10 10 9 6 3 3 2 2 3 3 3 8 7 6 4 5 3
11 14 14 16 15 13 14 15 17 18 17 15 14 13 12 13 13 13 13 12 11 10 9 8 8 9 11 12 7 4 2 3 5 3 5 6 7 7 8 8 6 3 2
10 13 13 14 14 13 13 15 16 17 16 13 14 13 11 12 13 11 11 11 9 8 7 7 8 9 10 13 11 5 1 6 5 7 9 10 9 8 8 9 6 5 2
11 14 14 12 11 11 12 13 15 17 15 13 15 10 10 11 12 12 11 10 9 8 7 7 8 8 5 6 8 4 2 4 8 7 7 8 9 9 10 7 6 7 4
13 15 16 15 14 13 12 12 14 15 15 16 12 9 10 11 12 11 10 10 9 8 9 10 7 4 4 5 6 7 6 6 5 7 8 8 9 8 10 6 4 5 5
12 16 17 17 14 12 11 12 14 16 17 14 11 11 12 10 11 11 10 10 10 11 7 4 1 1 4 4 4 4 3 7 7 6 6 8 8 7 7 4 3 2 4
13 19 18 17 13 13 13 13 16 14 16 15 12 11 11 11 11 10 10 12 14 9 4 1 1 0 1 3 3 3 6 4 3 6 3 2 2 1 3 3 3 1 3
14 20 19 16 14 15 17 16 19 16 16 15 12 12 10 10 7 9 13 15 9 4 1 3 2 3 4 2 4 6 6 5 9 4 4 3 2 2 1 1 6 4 5
15 18 18 18 16 16 15 16 16 14 17 13 11 10 7 8 7 9 10 7 5 4 3 2 0 2 3 7 8 8 8 7 4 7 6 4 1 3 3 3 5 6 6
16 20 20 18 15 13 12 13 15 14 13 12 11 9 7 3 4 9 8 5 7 8 3 2 2 4 4 8 7 5 6 5 7 8 5 3 2 4 4 4 6 5 4
16 18 18 18 15 15 17 15 15 14 12 12 10 7 4 1 5 2 4 5 7 5 1 1 2 3 5 7 9 5 6 7 8 4 1 4 4 5 6 4 5 5 3
14 16 17 18 17 14 12 13 12 11 13 13 10 8 6 1 5 9 6 7 7 3 1 3 3 1 3 4 7 7 8 4 2 1 2 4 2 5 5 3 4 2 1
17 15 18 18 18 17 14 13 13 12 11 13 10 7 8 6 7 8 7 8 8 4 1 1 3 4 5 6 9 8 4 5 2 3 4 3 1 1 5 4 2 1 2
20 19 19 20 18 19 19 18 14 11 10 10 7 7 7 6 8 9 6 5 8 7 4 5 7 7 5 6 6 4 3 1 2 1 4 4 2 4 1 3 1 2 2
24 23 21 22 21 18 19 20 16 10 12 9 9 11 8 6 6 8 7 5 6 7 6 8 10 8 4 4 7 4 1 1 5 7 7 3 1 4 5 3 1 2 1
29 26 25 22 21 17 15 18 15 12 15 13 14 15 9 6 7 8 11 12 11 10 8 6 8 7 4 4 5 5 2 2 1 1 2 2 2 2 2 5 3 3 3
27 28 27 25 22 19 16 17 17 15 18 14 13 13 12 11 10 9 12 15 16 15 12 8 8 7 6 4 3 3 3 3 1 1 3 3 2 4 1 2 4 7 4
26 27 26 24 24 24 18 18 18 21 20 18 13 16 16 15 13 13 11 12 14 13 12 11 8 7 7 7 4 4 4 3 2 1 3 2 2 6 5 5 5 8 3
27 27 26 24 22 22 23 20 20 23 21 21 18 17 16 16 15 15 13 13 12 12 12 13 10 8 8 9 9 8 5 3 1 1 2 3 2 6 8 7 4 7 5
Wind_Direction
165 161 158 163 156 149 145 141 139 138 140 143 144 144 140 141 143 146 142 142 145 138 136 125 125 136 145 143 142 152 150 138 140 130 123 119 118 126 128 120 121 154 174
161 158 161 163 161 156 155 150 146 143 145 146 146 147 145 143 145 146 147 147 142 135 125 126 130 135 140 141 142 140 143 142 132 121 116 118 125 118 80 141 135 149 164
159 157 164 166 164 162 159 159 158 156 154 155 154 154 153 152 151 149 148 147 141 133 128 131 134 137 142 145 141 135 137 130 119 118 95 89 115 100 49 39 189 184 176
159 160 166 167 168 165 161 160 162 164 163 163 159 155 157 152 153 152 149 144 140 135 126 130 134 138 139 135 133 129 130 117 110 104 104 125 149 136 62 246 208 196 200
156 160 163 161 163 162 161 164 167 166 160 150 155 154 153 153 158 157 150 142 134 132 129 131 135 139 141 139 133 130 136 138 130 104 97 80 105 218 204 163 203 216 208
185 171 169 169 176 174 170 170 170 166 160 152 145 146 145 138 139 153 151 142 138 138 133 131 138 143 143 139 127 108 97 92 66 73 96 185 155 275 194 201 251 267 224
180 183 181 180 175 170 169 173 171 164 155 151 145 143 138 136 148 141 140 138 137 134 129 132 136 144 151 148 131 139 207 260 254 87 67 26 248 241 217 213 273 312 238
184 184 183 184 184 178 170 170 168 164 160 152 146 145 140 142 136 132 133 135 130 128 127 127 132 141 162 169 165 189 235 296 283 268 265 286 255 257 255 259 298 348 45
188 193 193 183 183 183 168 165 163 164 155 146 146 146 139 133 139 139 133 135 135 130 122 117 121 138 159 174 189 176 183 304 334 318 307 319 279 255 259 262 277 304 346
186 196 193 186 177 172 171 165 162 165 156 152 150 141 143 140 142 127 131 135 134 129 125 128 128 144 159 177 198 185 174 279 313 336 306 294 290 268 262 263 277 295 240
198 199 190 180 178 173 166 163 161 160 157 156 149 155 144 150 142 134 141 140 142 144 138 128 128 115 126 206 215 189 207 307 344 338 306 275 292 289 283 271 293 295 268
211 195 194 191 177 174 164 153 160 162 159 154 155 156 147 149 143 144 144 152 151 139 125 113 112 106 145 211 252 268 287 302 319 310 316 306 289 288 290 293 312 282 251
214 189 181 176 174 171 163 159 161 163 155 159 155 142 142 141 147 150 156 152 140 133 126 124 142 289 225 202 299 327 325 276 294 342 286 280 255 274 296 311 324 284 226
181 180 176 166 160 157 158 161 158 151 155 156 154 151 140 134 135 137 147 145 139 140 142 100 280 352 304 360 345 317 343 295 330 346 271 81 166 314 306 2 77 121 171
163 175 175 170 157 160 160 156 154 154 153 157 154 151 145 145 128 126 138 145 150 167 171 117 38 341 352 27 348 353 349 351 328 342 357 58 58 95 49 22 105 117 142
141 167 167 166 164 161 163 162 169 153 156 166 158 156 161 162 148 155 154 151 171 183 188 140 299 2 332 320 311 327 325 324 322 359 14 2 62 111 111 119 121 125 128
139 145 156 164 162 158 168 166 175 173 169 167 163 175 158 172 175 180 173 183 164 169 189 328 282 332 22 350 22 325 304 319 346 22 50 54 85 100 121 136 146 122 132
163 154 157 163 164 161 159 159 173 188 182 183 198 194 171 202 188 186 177 192 160 167 233 117 41 113 14 29 5 23 349 295 315 284 86 69 60 93 96 165 159 141 149
185 178 176 169 166 166 182 182 184 189 186 191 204 200 195 221 217 157 159 184 179 181 76 122 70 357 344 19 5 341 328 237 133 151 185 87 67 84 99 141 148 150 202
185 182 189 186 176 172 188 195 186 198 195 201 209 215 205 194 165 178 167 179 190 188 174 232 329 328 348 355 352 354 322 127 132 182 209 134 151 154 100 80 119 84 215
199 190 181 178 186 191 197 199 202 198 199 206 219 202 187 203 204 194 206 206 209 225 254 292 293 306 306 329 350 347 102 11 133 265 139 165 18 251 219 75 89 102 49
208 201 195 190 190 196 206 208 214 226 219 220 221 211 200 209 218 212 224 247 258 258 259 274 281 287 295 344 347 346 293 65 102 128 107 118 330 347 246 200 235 193 101
220 217 205 203 201 204 205 206 217 229 213 233 231 220 218 233 253 249 251 254 259 259 260 257 277 273 260 301 312 328 308 27 224 272 209 216 265 233 281 222 243 240 221
217 217 216 213 207 206 203 215 221 219 222 231 233 219 232 238 264 252 261 260 253 270 271 255 261 250 231 276 247 273 335 329 324 316 266 279 214 211 276 294 278 216 241
215 216 217 219 217 208 212 216 222 225 230 230 238 237 238 251 257 243 266 264 253 264 261 250 258 236 226 233 257 255 291 338 253 301 95 28 248 216 208 231 220 208 184
220 223 220 219 222 222 220 223 226 227 227 227 238 242 243 249 253 250 261 262 265 257 270 248 254 243 236 241 256 274 264 245 133 217 294 283 270 221 224 225 222 211 229